Regional Weather Roundup
Issued by NWS Upton, NY

Home | Current Version | Previous Version | Text Only | Print | Product List | Glossary On
Versions: 1 2 3 4 5 6 7 8 9 10 11 12 13 14 15 16 17 18 19 20 21 22 23 24 25 26 27 28 29 30 31 32 33 34 35 36 37 38 39 40 41 42 43 44 45 46 47 48 49 50
000
ASUS41 KOKX 230005
RWROKX

REGIONAL WEATHER ROUNDUP
NATIONAL WEATHER SERVICE NEW YORK NY
800 PM EDT TUE JUL 22 2014

NOTE: "FAIR" INDICATES FEW OR NO CLOUDS BELOW 12,000 FEET WITH NO
SIGNIFICANT WEATHER AND/OR OBSTRUCTIONS TO VISIBILITY.

NYZ071-072-176-178-NJZ106-104-230100-
NEW YORK CITY METRO AREA


CITY           SKY/WX    TMP DP  RH WIND       PRES   REMARKS
CENTRAL PARK   CLEAR     80  66  62 S5        30.09S
LAGUARDIA APRT PTCLDY    80  66  62 S12       30.06S
KENNEDY INTL   PTCLDY    76  64  66 S23       30.08S
NEWARK/LIBERTY PTCLDY    85  67  54 SW15      30.06R
BRNX BOT. GARD   N/A     77  66  69 SE2       30.07S
TETERBORO      CLEAR     84  67  56 S7        30.05R
$$

NYZ177-179-078>081-230100-
LONG ISLAND NEW YORK

CITY           SKY/WX    TMP DP  RH WIND       PRES   REMARKS
FARMINGDALE    CLEAR     74  63  68 SW15G23   30.09S
ISLIP          CLEAR     75  63  66 SW14      30.08S
SHIRLEY        CLEAR     74  63  68 SW9       30.10S
WESTHAMPTON    CLEAR     73  63  70 SW10G17   30.11S
MONTAUK POINT    N/A     73  65  75 SW8       30.10R
$$

NYZ052-065-067-230100-
HUDSON VALLEY

CITY           SKY/WX    TMP DP  RH WIND       PRES   REMARKS
WHITE PLAINS   PTCLDY    76  65  68 S8        30.08S
NEWBURGH       PTCLDY    82  70  65 W9        30.07S
MONTGOMERY     PTCLDY    81  69  67 SW7       30.04F
POUGHKEEPSIE   CLEAR     84  69  60 S5        30.03S
ALBANY         PTCLDY    85  69  58 S12       29.99F
$$

NJZ001-105-106-008-010-013-015-019>022-104-230100-
NEW JERSEY

CITY           SKY/WX    TMP DP  RH WIND       PRES   REMARKS
NEWARK/LIBERTY PTCLDY    85  67  54 SW15      30.06R
TETERBORO      CLEAR     84  67  56 S7        30.05R
CALDWELL       CLEAR     84  66  54 SW3       30.06S
MORRISTOWN     PTCLDY    84  68  58 SW7       30.07R
SOMERVILLE     PTCLDY    82  69  64 CALM      30.05R
LINDEN         FAIR      86  67  53 W5        30.08S
SUSSEX         CLEAR     83  70  64 CALM      30.07S
ANDOVER          N/A     79  70  74 CALM      30.08S
TRENTON        PTCLDY    82  66  58 SW7       30.08R
MILLVILLE      MOCLDY    76  66  71 SW3       30.11S
ATLANTIC CITY  PTCLDY    75  65  70 S10       30.11S
WRIGHTSTOWN    CLEAR     78  65  64 S9        30.07R
TOMS RIVER     CLEAR     77  63  61 S6        30.11R
BELMAR         CLEAR     79  63  57 S9        30.09S
$$

PAZ047>061-062-071-230100-
EASTERN PENNSYLVANIA

CITY           SKY/WX    TMP DP  RH WIND       PRES   REMARKS
PHILADELPHIA   PTCLDY    82  60  47 S9        30.10R
ALLENTOWN      CLEAR     81  69  67 SW8       30.07F
SCRANTON       PTCLDY    82  67  60 S5        30.07S
$$

CTZ002-004>006-009-010-012-RIZ004-006-007-MAZ004-011-015-230100-
SOUTHERN NEW ENGLAND
 IN CT

CITY           SKY/WX    TMP DP  RH WIND       PRES   REMARKS
BRADLEY INTL   MOCLDY    84  67  56 S10       30.02S
HARTFORD       CLEAR     81  67  62 S8        30.03R
DANBURY        CLEAR     78  65  63 S10       30.08S
WTRBRY/OXFORD  CLEAR     77  66  69 SW8       30.11
BRIDGEPORT     CLEAR     79  68  69 SW9       30.07S
MERIDEN        CLEAR     79  66  64 S10       30.06R
NEW HAVEN      CLEAR     78  68  71 SW7       30.07S
CHESTER        FAIR      73  66  78 SW10      30.09S
GROTON         CLEAR     72  66  81 SW10      30.07R
WILLIMANTIC    CLEAR     80  67  64 S6        30.06R

 IN RI

CITY           SKY/WX    TMP DP  RH WIND       PRES   REMARKS
PROVIDENCE     PTCLDY    78  67  68 SW12      30.05S
BLOCK ISLAND   CLEAR     72  64  78 SW15      30.09S
WESTERLY       CLEAR     75  66  73 SW7       30.09R

 IN MA

CITY           SKY/WX    TMP DP  RH WIND       PRES   REMARKS
BOSTON         PTCLDY    81  68  64 S10       30.00R
WORCESTER      CLEAR     79  67  66 SW12      30.06S
WESTFIELD      PTCLDY    83  68  60 S8        30.02S
PROVINCETOWN   CLEAR     72  66  83 S13       30.04S
NANTUCKET      CLEAR     68  65  90 SW9       30.07F
$$

ANZ330-335-338-340-345-350-353-355-230100-
COASTAL MARINE OBSERVATIONS


STATION/POSITION TIME  SKY/WX   TEMP    WIND        PRES    VSBY  WAVE
                                AIR SEA DIR/SP/G                  HT/PER
                 (UTC)          (F)     (DEG/KT/KT) (MB)    (MI)  (FT/S)
NY HARB ENTRANCE NOT AVBL
4S FIRE IS       NOT AVBL
23SW MTP         0000            72 71              1018.5          3/ 4
HUDSON CANYON    0000            74 74  220/ 12/ 12 1019.6          2/ 7
EXECUTION ROCKS  0000            77 71  200/ 12/ 19   N/A
WESTERN LI SOUND 0000            77     180/ 14/ 17   N/A           1/ 3
CENTRAL LI SOUND 2300            75 74  200/ 16/ 19   N/A           1/ 3
EASTERN LI SOUND 2300            73 66  220/ 10/ 12   N/A
ROBBINS REEF     0000            77     170/ 16/ 16   N/A
$$


>>>>>>>>>>>>>>>>>>>>>>>>>>>> KEY <<<<<<<<<<<<<<<<<<<<<<<<<<<
>                                                          <
>     SKY/WX - SKY CONDITION/PRESENT WEATHER               <
>     TMP    - TEMPERATURE IN FAHRENHEIT                   <
>     DP     - DEWPOINT IN FAHRENHEIT                      <
>     RH     - RELATIVE HUMIDITY IN PERCENT                <
>     WIND   - DIRECTION AND SPEED IN MPH                  <
>     PRES   - MEAN SEA LEVEL PRESSURE IN INCHES OF HG     <
>     WCI    - WIND CHILL INDEX                            <
>     VSB    - VISIBILITY IN MILES                         <
>     HX     - HEAT INDEX                                  <
>     TC     - TEMPERATURE IN CELSIUS                      <
>     VRB    - VARIABLE WIND DIRECTION                     <
>                                                          <
>>>>>>>>>>>>>>>>>>>>>>>>>>>> KEY <<<<<<<<<<<<<<<<<<<<<<<<<<<





USA.gov is the U.S. government's official web portal to all federal, state and local government web resources and services.